Time,TemperatureF,DewpointF,PressureIn,WindDirection,WindDirectionDegrees,WindSpeedMPH,WindSpeedGustMPH,Humidity,HourlyPrecipIn,Conditions,Clouds,dailyrainin,SoftwareType,DateUTC
2013-02-13 00:01:00,51.0,29.0,30.41,ENE,60,2.0,2.0,43,0.00,,,-99.99,,2013-02-13 08:01:00,
2013-02-13 00:11:00,51.0,29.0,30.41,WNW,300,2.0,4.0,42,0.00,,,-99.99,,2013-02-13 08:11:00,
2013-02-13 00:21:00,51.0,29.0,30.41,WNW,300,2.0,4.0,42,0.00,,,-99.99,,2013-02-13 08:21:00,
2013-02-13 00:31:00,51.0,29.0,30.41,North,0,0.0,1.0,42,0.00,,,-99.99,,2013-02-13 08:31:00,
2013-02-13 00:42:00,51.0,26.0,30.40,WNW,290,2.0,3.0,37,0.00,,,-99.99,,2013-02-13 08:42:00,
2013-02-13 00:52:00,51.0,26.0,30.40,WNW,290,2.0,3.0,37,0.00,,,-99.99,,2013-02-13 08:52:00,
2013-02-13 01:01:00,51.0,27.0,30.40,WNW,290,1.0,2.0,39,0.00,,,-99.99,,2013-02-13 09:01:00,
2013-02-13 01:21:00,51.0,26.0,30.39,WNW,290,1.0,4.0,38,0.00,,,-99.99,,2013-02-13 09:21:00,
2013-02-13 01:31:00,51.0,27.0,30.39,North,0,0.0,3.0,39,0.00,,,-99.99,,2013-02-13 09:31:00,
2013-02-13 01:41:00,51.0,27.0,30.39,North,0,0.0,3.0,39,0.00,,,-99.99,,2013-02-13 09:41:00,
2013-02-13 01:51:00,51.0,27.0,30.39,North,0,0.0,3.0,39,0.00,,,-99.99,,2013-02-13 09:51:00,
2013-02-13 02:01:00,51.0,28.0,30.39,WNW,290,1.0,2.0,41,0.00,,,-99.99,,2013-02-13 10:01:00,
2013-02-13 02:21:00,51.0,29.0,30.39,WNW,300,1.0,3.0,42,0.00,,,-99.99,,2013-02-13 10:21:00,
2013-02-13 02:31:00,51.0,29.0,30.39,WNW,300,1.0,3.0,42,0.00,,,-99.99,,2013-02-13 10:31:00,
2013-02-13 02:41:00,51.0,29.0,30.38,WNW,300,2.0,4.0,42,0.00,,,-99.99,,2013-02-13 10:41:00,
2013-02-13 02:51:00,51.0,29.0,30.38,WNW,300,2.0,4.0,42,0.00,,,-99.99,,2013-02-13 10:51:00,
2013-02-13 03:01:00,51.0,28.0,30.37,NW,310,2.0,2.0,41,0.00,,,-99.99,,2013-02-13 11:01:00,
2013-02-13 03:11:00,51.0,28.0,30.37,NW,310,3.0,4.0,41,0.00,,,-99.99,,2013-02-13 11:11:00,
2013-02-13 03:22:00,51.0,28.0,30.37,NW,310,3.0,4.0,41,0.00,,,-99.99,,2013-02-13 11:22:00,
2013-02-13 03:32:00,50.0,27.0,30.36,NW,310,2.0,4.0,41,0.00,,,-99.99,,2013-02-13 11:32:00,
2013-02-13 03:42:00,51.0,28.0,30.36,North,0,0.0,4.0,40,0.00,,,-99.99,,2013-02-13 11:42:00,
2013-02-13 03:52:00,51.0,28.0,30.36,North,0,0.0,4.0,40,0.00,,,-99.99,,2013-02-13 11:52:00,
2013-02-13 04:02:00,51.0,26.0,30.36,North,0,0.0,1.0,38,0.00,,,-99.99,,2013-02-13 12:02:00,
2013-02-13 04:11:00,52.0,24.0,30.35,North,0,0.0,2.0,33,0.00,,,-99.99,,2013-02-13 12:11:00,
2013-02-13 04:32:00,52.0,24.0,30.35,North,0,0.0,1.0,33,0.00,,,-99.99,,2013-02-13 12:32:00,
2013-02-13 04:42:00,52.0,24.0,30.36,NW,310,2.0,3.0,33,0.00,,,-99.99,,2013-02-13 12:42:00,
2013-02-13 04:52:00,52.0,24.0,30.36,NW,310,2.0,3.0,33,0.00,,,-99.99,,2013-02-13 12:52:00,
2013-02-13 05:02:00,52.0,24.0,30.36,North,0,0.0,2.0,33,0.00,,,-99.99,,2013-02-13 13:02:00,
2013-02-13 05:11:00,52.0,23.0,30.35,North,0,0.0,2.0,32,0.00,,,-99.99,,2013-02-13 13:11:00,
2013-02-13 05:31:00,52.0,22.0,30.36,North,-999,0.0,0.0,31,0.00,,,-99.99,,2013-02-13 13:31:00,
2013-02-13 05:41:00,52.0,22.0,30.36,North,-999,0.0,0.0,31,0.00,,,-99.99,,2013-02-13 13:41:00,
2013-02-13 05:52:00,52.0,22.0,30.36,North,-999,0.0,0.0,31,0.00,,,-99.99,,2013-02-13 13:52:00,
2013-02-13 06:01:00,52.0,22.0,30.36,North,-999,0.0,0.0,31,0.00,,,-99.99,,2013-02-13 14:01:00,
2013-02-13 06:11:00,52.0,24.0,30.36,North,0,0.0,3.0,33,0.00,,,-99.99,,2013-02-13 14:11:00,
2013-02-13 06:30:00,51.0,22.0,30.35,West,270,2.0,2.0,32,0.00,,,-99.99,,2013-02-13 14:30:00,
2013-02-13 06:31:00,51.0,22.0,30.36,North,0,0.0,2.0,32,0.00,,,-99.99,,2013-02-13 14:31:00,
2013-02-13 06:41:00,51.0,22.0,30.36,North,0,0.0,2.0,32,0.00,,,-99.99,,2013-02-13 14:41:00,
2013-02-13 06:52:00,51.0,22.0,30.36,North,0,0.0,2.0,32,0.00,,,-99.99,,2013-02-13 14:52:00,
2013-02-13 07:01:00,51.0,22.0,30.35,West,270,2.0,2.0,32,0.00,,,-99.99,,2013-02-13 15:01:00,
2013-02-13 07:21:00,51.0,22.0,30.35,West,270,2.0,2.0,32,0.00,,,-99.99,,2013-02-13 15:21:00,
2013-02-13 08:11:00,52.0,22.0,30.37,North,-999,0.0,0.0,31,0.00,,,-99.99,,2013-02-13 16:11:00,
2013-02-13 08:31:00,53.0,21.0,30.37,North,-999,0.0,0.0,28,0.00,,,-99.99,,2013-02-13 16:31:00,
2013-02-13 08:42:00,53.0,21.0,30.37,North,-999,0.0,0.0,28,0.00,,,-99.99,,2013-02-13 16:42:00,
2013-02-13 08:52:00,53.0,21.0,30.37,North,-999,0.0,0.0,28,0.00,,,-99.99,,2013-02-13 16:52:00,
2013-02-13 09:01:00,54.0,23.0,30.38,North,-999,0.0,0.0,30,0.00,,,-99.99,,2013-02-13 17:01:00,
2013-02-13 09:31:00,55.0,28.0,30.38,North,-999,0.0,0.0,35,0.00,,,-99.99,,2013-02-13 17:31:00,
2013-02-13 09:42:00,55.0,28.0,30.38,North,-999,0.0,0.0,35,0.00,,,-99.99,,2013-02-13 17:42:00,
2013-02-13 09:52:00,55.0,28.0,30.38,North,-999,0.0,0.0,35,0.00,,,-99.99,,2013-02-13 17:52:00,
2013-02-13 10:01:00,56.0,29.0,30.38,North,-999,0.0,0.0,36,0.00,,,-99.99,,2013-02-13 18:01:00,
2013-02-13 10:11:00,56.0,29.0,30.38,North,-999,0.0,0.0,36,0.00,,,-99.99,,2013-02-13 18:11:00,
2013-02-13 10:22:00,56.0,29.0,30.38,North,-999,0.0,0.0,36,0.00,,,-99.99,,2013-02-13 18:22:00,
2013-02-13 10:31:00,57.0,27.0,30.38,North,-999,0.0,0.0,31,0.00,,,-99.99,,2013-02-13 18:31:00,
2013-02-13 10:42:00,57.0,27.0,30.38,North,-999,0.0,0.0,31,0.00,,,-99.99,,2013-02-13 18:42:00,
2013-02-13 10:52:00,57.0,27.0,30.38,North,-999,0.0,0.0,31,0.00,,,-99.99,,2013-02-13 18:52:00,
2013-02-13 11:01:00,58.0,28.0,30.37,North,0,0.0,1.0,31,0.00,,,-99.99,,2013-02-13 19:01:00,
2013-02-13 11:02:00,57.0,28.0,30.35,North,0,0.0,1.0,33,0.00,,,-99.99,,2013-02-13 19:02:00,
2013-02-13 11:11:00,58.0,28.0,30.37,North,0,0.0,1.0,31,0.00,,,-99.99,,2013-02-13 19:11:00,
2013-02-13 11:21:00,58.0,28.0,30.37,North,0,0.0,1.0,31,0.00,,,-99.99,,2013-02-13 19:21:00,
2013-02-13 11:31:00,57.0,28.0,30.35,North,0,0.0,1.0,33,0.00,,,-99.99,,2013-02-13 19:31:00,
2013-02-13 11:42:00,57.0,28.0,30.35,North,0,0.0,1.0,33,0.00,,,-99.99,,2013-02-13 19:42:00,
2013-02-13 11:52:00,57.0,28.0,30.35,North,0,0.0,1.0,33,0.00,,,-99.99,,2013-02-13 19:52:00,
2013-02-13 12:11:00,59.0,31.0,30.33,North,0,0.0,4.0,34,0.00,,,-99.99,,2013-02-13 20:11:00,
2013-02-13 12:21:00,59.0,31.0,30.33,North,0,0.0,4.0,34,0.00,,,-99.99,,2013-02-13 20:21:00,
2013-02-13 12:31:00,59.0,31.0,30.33,North,0,0.0,4.0,34,0.00,,,-99.99,,2013-02-13 20:31:00,
2013-02-13 12:41:00,59.0,31.0,30.33,North,0,0.0,4.0,34,0.00,,,-99.99,,2013-02-13 20:41:00,
2013-02-13 14:02:00,63.0,34.0,30.25,North,0,0.0,1.0,34,0.00,,,-99.99,,2013-02-13 22:02:00,
2013-02-13 14:11:00,63.0,34.0,30.25,North,0,0.0,1.0,34,0.00,,,-99.99,,2013-02-13 22:11:00,
2013-02-13 14:21:00,63.0,34.0,30.25,North,0,0.0,1.0,34,0.00,,,-99.99,,2013-02-13 22:21:00,
2013-02-13 14:31:00,62.0,33.0,30.24,WSW,240,1.0,4.0,34,0.00,,,-99.99,,2013-02-13 22:31:00,
2013-02-13 14:42:00,61.0,34.0,30.23,North,0,0.0,6.0,36,0.00,,,-99.99,,2013-02-13 22:42:00,
2013-02-13 14:52:00,61.0,34.0,30.23,North,0,0.0,6.0,36,0.00,,,-99.99,,2013-02-13 22:52:00,
2013-02-13 15:01:00,61.0,34.0,30.23,North,0,0.0,6.0,36,0.00,,,-99.99,,2013-02-13 23:01:00,
2013-02-13 15:11:00,61.0,34.0,30.23,North,0,0.0,6.0,36,0.00,,,-99.99,,2013-02-13 23:11:00,
2013-02-13 15:32:00,62.0,33.0,30.21,North,0,0.0,2.0,34,0.00,,,-99.99,,2013-02-13 23:32:00,
2013-02-13 15:42:00,62.0,33.0,30.21,North,0,0.0,2.0,34,0.00,,,-99.99,,2013-02-13 23:42:00,
2013-02-13 15:52:00,62.0,33.0,30.21,North,0,0.0,2.0,34,0.00,,,-99.99,,2013-02-13 23:52:00,
2013-02-13 16:01:00,60.0,35.0,30.21,WSW,240,1.0,7.0,39,0.00,,,-99.99,,2013-02-14 00:01:00,
2013-02-13 16:11:00,59.0,34.0,30.20,North,0,0.0,7.0,39,0.00,,,-99.99,,2013-02-14 00:11:00,
2013-02-13 16:21:00,59.0,34.0,30.20,North,0,0.0,7.0,39,0.00,,,-99.99,,2013-02-14 00:21:00,
2013-02-13 16:31:00,60.0,36.0,30.20,WSW,250,1.0,3.0,40,0.00,,,-99.99,,2013-02-14 00:31:00,
2013-02-13 16:41:00,60.0,36.0,30.20,WSW,250,1.0,3.0,40,0.00,,,-99.99,,2013-02-14 00:41:00,
2013-02-13 16:52:00,60.0,36.0,30.20,WSW,250,1.0,3.0,40,0.00,,,-99.99,,2013-02-14 00:52:00,
2013-02-13 17:01:00,59.0,33.0,30.19,West,260,4.0,4.0,38,0.00,,,-99.99,,2013-02-14 01:01:00,
2013-02-13 17:11:00,58.0,32.0,30.18,North,0,0.0,6.0,37,0.00,,,-99.99,,2013-02-14 01:11:00,
2013-02-13 17:21:00,58.0,32.0,30.18,North,0,0.0,6.0,37,0.00,,,-99.99,,2013-02-14 01:21:00,
2013-02-13 17:31:00,58.0,32.0,30.18,North,0,0.0,6.0,37,0.00,,,-99.99,,2013-02-14 01:31:00,
2013-02-13 17:41:00,58.0,32.0,30.18,North,0,0.0,6.0,37,0.00,,,-99.99,,2013-02-14 01:41:00,
2013-02-13 18:01:00,57.0,28.0,30.18,WNW,290,3.0,5.0,33,0.00,,,-99.99,,2013-02-14 02:01:00,
2013-02-13 18:11:00,57.0,28.0,30.18,WNW,290,3.0,5.0,33,0.00,,,-99.99,,2013-02-14 02:11:00,
2013-02-13 18:21:00,57.0,28.0,30.18,WNW,290,3.0,5.0,33,0.00,,,-99.99,,2013-02-14 02:21:00,
2013-02-13 18:31:00,57.0,25.0,30.18,WNW,290,3.0,3.0,29,0.00,,,-99.99,,2013-02-14 02:31:00,
2013-02-13 18:42:00,57.0,25.0,30.18,WNW,290,3.0,3.0,29,0.00,,,-99.99,,2013-02-14 02:42:00,
2013-02-13 18:52:00,57.0,25.0,30.18,WNW,290,3.0,3.0,29,0.00,,,-99.99,,2013-02-14 02:52:00,
2013-02-13 19:02:00,57.0,21.0,30.19,WNW,290,2.0,4.0,24,0.00,,,-99.99,,2013-02-14 03:02:00,
2013-02-13 19:11:00,57.0,20.0,30.18,WNW,290,1.0,5.0,23,0.00,,,-99.99,,2013-02-14 03:11:00,
2013-02-13 19:21:00,57.0,20.0,30.18,WNW,290,1.0,5.0,23,0.00,,,-99.99,,2013-02-14 03:21:00,
2013-02-13 19:31:00,57.0,22.0,30.19,WNW,290,2.0,4.0,25,0.00,,,-99.99,,2013-02-14 03:31:00,
2013-02-13 19:42:00,57.0,20.0,30.19,WNW,290,1.0,4.0,23,0.00,,,-99.99,,2013-02-14 03:42:00,
2013-02-13 19:52:00,57.0,20.0,30.19,WNW,290,1.0,4.0,23,0.00,,,-99.99,,2013-02-14 03:52:00,
2013-02-13 20:01:00,57.0,19.0,30.20,WNW,290,2.0,3.0,22,0.00,,,-99.99,,2013-02-14 04:01:00,
2013-02-13 20:11:00,57.0,24.0,30.20,WNW,290,1.0,4.0,28,0.00,,,-99.99,,2013-02-14 04:11:00,
2013-02-13 20:31:00,57.0,27.0,30.20,WNW,290,1.0,2.0,31,0.00,,,-99.99,,2013-02-14 04:31:00,
2013-02-13 20:41:00,57.0,27.0,30.20,WNW,300,2.0,5.0,32,0.00,,,-99.99,,2013-02-14 04:41:00,
2013-02-13 20:52:00,57.0,27.0,30.20,WNW,300,2.0,5.0,32,0.00,,,-99.99,,2013-02-14 04:52:00,
2013-02-13 21:01:00,57.0,27.0,30.20,WNW,300,2.0,5.0,32,0.00,,,-99.99,,2013-02-14 05:01:00,
2013-02-13 21:32:00,58.0,27.0,30.19,NW,310,2.0,3.0,30,0.00,,,-99.99,,2013-02-14 05:32:00,
2013-02-13 21:42:00,58.0,26.0,30.20,NW,310,2.0,3.0,29,0.00,,,-99.99,,2013-02-14 05:42:00,
2013-02-13 21:52:00,58.0,26.0,30.20,NW,310,2.0,3.0,29,0.00,,,-99.99,,2013-02-14 05:52:00,
2013-02-13 22:01:00,58.0,27.0,30.20,North,-999,0.0,0.0,30,0.00,,,-99.99,,2013-02-14 06:01:00,
2013-02-13 22:11:00,58.0,26.0,30.20,North,-999,0.0,0.0,29,0.00,,,-99.99,,2013-02-14 06:11:00,
2013-02-13 22:31:00,58.0,24.0,30.20,North,-999,0.0,0.0,27,0.00,,,-99.99,,2013-02-14 06:31:00,
2013-02-13 22:41:00,57.0,23.0,30.20,North,0,0.0,1.0,27,0.00,,,-99.99,,2013-02-14 06:41:00,
2013-02-13 22:52:00,57.0,23.0,30.20,North,0,0.0,1.0,27,0.00,,,-99.99,,2013-02-14 06:52:00,
2013-02-13 23:01:00,56.0,26.0,30.20,North,-999,0.0,0.0,31,0.00,,,-99.99,,2013-02-14 07:01:00,
2013-02-13 23:11:00,56.0,27.0,30.20,North,-999,0.0,0.0,33,0.00,,,-99.99,,2013-02-14 07:11:00,
2013-02-13 23:21:00,56.0,27.0,30.20,North,-999,0.0,0.0,33,0.00,,,-99.99,,2013-02-14 07:21:00,
2013-02-13 23:31:00,55.0,27.0,30.20,North,-999,0.0,0.0,34,0.00,,,-99.99,,2013-02-14 07:31:00,
2013-02-13 23:41:00,55.0,25.0,30.19,North,-999,0.0,0.0,31,0.00,,,-99.99,,2013-02-14 07:41:00,
2013-02-13 23:52:00,55.0,25.0,30.19,North,-999,0.0,0.0,31,0.00,,,-99.99,,2013-02-14 07:52:00,